Weather in Ica

Peru     14°04′27″S   75°44′18″W
temp.,
°C
wind,
m/s
gust,
m/s
humid.,
%
clouds,
%
prec.,
mm/h
press.,
hPa
HPBL,
m
23 april, fri
fri2301:00+19s22720 0.0 1013117
04:00+18ssw22780 0.0 101261
07:00+19sse22765 0.0 1014129
10:00+24ssw22537 0.0 1013610
13:00+29w223734 0.0 10101319
16:00+28wnw64400 0.0 1009910
19:00+21nw33630 0.0 1012228
22:00+20wsw11670 0.0 1013163
24 april, sat
sat2401:00+19ssw11730 0.0 1013148
04:00+18sse22750 0.0 101375
07:00+18s22740 0.0 1014137
10:00+23sw21540 0.0 1014645
13:00+28wnw43382 0.0 10111341
16:00+26wnw64450 0.0 1010824
19:00+20wnw33690 0.0 1013210
22:00+18w10750 0.0 1014106
25 april, sun
sun2501:00+18sse11774 0.0 1013108
04:00+17se22805 0.0 101259
07:00+18sse12764 0.0 101398
10:00+23wsw115426 0.0 1014628
13:00+28w33356 0.0 10111282
16:00+27wnw543983 0.0 1010984
19:00+20nw336634 0.0 1013168
22:00+19nnw117257 0.0 101490
26 april, mon
mon2601:00+18nw01754 0.0 101347
04:00+17sw01790 0.0 101330
07:00+18sw11740 0.0 101473
10:00+24sw21500 0.0 1014614
13:00+29wnw43330 0.0 10111254
16:00+26wnw64430 0.0 1010823
19:00+20nw34680 0.0 1013209
22:00+18wnw11754 0.0 101487
27 april, tue
tue2701:00+17ssw117979 0.0 101387
04:00+16s11844 0.0 101343
07:00+17ssw1081100 0.0 101496
10:00+22wsw21575 0.0 1014623
13:00+27wnw323825 0.0 10111191
16:00+26wnw64443 0.0 1011855
19:00+19nw337117 0.0 1013242
22:00+17wnw118096 0.0 1014137